This demonstration page uses our WeatherBlox Daily Observations layout. Learn more.

Left ArrowRight Arrow

34.74481, -87.66753

Hourly Observations for May 10, 2020

Temp ( °F °C ) Dew Point ( °F °C ) Humidity (%) Winds ( mph kmh ) Pressure ( in mb ) Visibility ( mi km ) Precip ( " mm )
12:53 am 00:53 Clear 48 8.9 44 6.7 86 86 Calm 30.21 1023 10 16 0.00 0.00
1:53 am 01:53 Clear 46 7.8 43 6.1 89 89 Calm 30.19 1023 10 16 0.00 0.00
2:53 am 02:53 Clear 46 7.8 42 5.6 86 86 Calm 30.20 1023 10 16 0.00 0.00
3:53 am 03:53 Clear 45 7.2 41 5 86 86 Calm 30.22 1023 10 16 0.00 0.00
4:53 am 04:53 Clear 44 6.7 40 4.4 85 85 Calm 30.23 1024 10 16 0.00 0.00
5:53 am 05:53 Sunny 43 6.1 40 4.4 89 89 Calm 30.24 1024 10 16 0.00 0.00
6:53 am 06:53 Sunny 47 8.3 43 6.1 86 86 Calm 30.24 1024 10 16 0.00 0.00
7:53 am 07:53 Sunny 51 10.6 45 7.2 80 80 undefined N/A 30.25 1024 10 16 0.00 0.00
8:53 am 08:53 Sunny 57 13.9 44 6.7 62 62 VRB 3 6 30.25 1024 10 16 0.00 0.00
9:53 am 09:53 Sunny 63 17.2 39 3.9 41 41 W 5 7 30.25 1024 10 16 0.00 0.00
10:53 am 10:53 Sunny 66 18.9 39 3.9 37 37 WSW 9 15 30.24 1024 10 16 0.00 0.00
11:53 am 11:53 Sunny 68 20 39 3.9 35 35 VRB 7 11 30.22 1024 10 16 0.00 0.00
12:53 pm 12:53 Sunny 70 21.1 38 3.3 31 31 WNW 10 17 30.20 1023 10 16 0.00 0.00
1:53 pm 13:53 Sunny 71 21.7 40 4.4 32 32 WNW 13 20 30.18 1022 10 16 0.00 0.00
2:53 pm 14:53 Sunny 72 22.2 42 5.6 34 34 NW 9 15 30.16 1021 10 16 0.00 0.00
3:53 pm 15:53 Partly Cloudy 73 22.8 43 6.1 34 34 NW 9 15 30.13 1020 10 16 0.00 0.00
4:53 pm 16:53 Mostly Sunny 72 22.2 42 5.6 34 34 W 15 24 30.12 1020 10 16 0.00 0.00
5:53 pm 17:53 Mostly Sunny 73 22.8 42 5.6 33 33 WNW 12 19 30.11 1020 10 16 0.00 0.00
6:53 pm 18:53 Sunny 71 21.7 42 5.6 35 35 WNW 9 15 30.11 1020 10 16 0.00 0.00
7:53 pm 19:53 Clear 66 18.9 44 6.7 45 45 WNW 5 7 30.11 1020 10 16 0.00 0.00
8:53 pm 20:53 Clear 63 17.2 45 7.2 52 52 Calm 30.12 1020 10 16 0.00 0.00
9:53 pm 21:53 Clear 60 15.6 46 7.8 60 60 Calm 30.13 1020 10 16 0.00 0.00
10:53 pm 22:53 Clear 59 15 48 8.9 67 67 Calm 30.14 1021 10 16 0.00 0.00
11:53 pm 23:53 Clear 60 15.6 44 6.7 56 56 N 5 7 30.16 1021 10 16 0.00 0.00

Powered by AerisWeather